Regional Weather Roundup
Issued by NWS

Home | Current Version | Previous Version | Graphics & Text | Print | Product List | Glossary Off
Versions: 1 2 3 4 5 6 7 8 9 10 11 12 13 14 15 16 17 18 19 20 21 22 23 24 25 26 27 28 29 30 31 32 33 34 35 36 37 38 39 40 41 42 43 44 45 46 47 48 49 50

000
ASUS43 KTOP 021759
RWRKS

WEATHER ROUNDUP FOR KANSAS
NATIONAL WEATHER SERVICE GOODLAND KS
100 PM CDT MON MAY 02 2016

NOTE:  "FAIR" INDICATES FEW OR NO CLOUDS BELOW 12,000 FEET WITH NO
SIGNIFICANT WEATHER AND/OR OBSTRUCTIONS TO VISIBILITY.

KSZ001>006-013>018-027>032-041>047-021900-
NORTHWEST KANSAS

CITY           SKY/WX    TMP DP  RH WIND       PRES   REMARKS
GOODLAND       SUNNY     56  30  37 N8        30.19F
6HR MIN TEMP:  29; 6HR MAX TEMP:  56;

HAYS           MOSUNNY   59  36  41 N9G16     30.18F
HILL CITY      SUNNY     61  34  36 N10       30.18F
6HR MIN TEMP:  38; 6HR MAX TEMP:  61;

RUSSELL        PTSUNNY   57  36  45 NW7       30.16F
6HR MIN TEMP:  44; 6HR MAX TEMP:  59;

$$

KSZ061>065-074>080-084>089-021900-
SOUTHWEST KANSAS

CITY           SKY/WX    TMP DP  RH WIND       PRES   REMARKS
DODGE CITY     PTSUNNY   56  32  40 N10       30.21F
6HR MIN TEMP:  38; 6HR MAX TEMP:  57;

ELKHART          N/A     53  34  48 W12         N/A
GARDEN CITY    MOSUNNY   55  31  39 VRB6      30.21F
6HR MIN TEMP:  32; 6HR MAX TEMP:  55;

GREAT BEND     PTSUNNY   55  36  47 N10       30.18F
LIBERAL        MOSUNNY   55  37  50 N10       30.24F
$$

KSZ066>073-081>083-090>101-021900-
SOUTHEAST KANSAS

CITY           SKY/WX    TMP DP  RH WIND       PRES   REMARKS
CHANUTE        CLOUDY    56  43  61 N6        30.13F
6HR MIN TEMP:  49; 6HR MAX TEMP:  58;

COFFEYVILLE    CLOUDY    55  45  68 NW3       30.14F
6HR MIN TEMP:  51; 6HR MAX TEMP:  55;

HUTCHINSON     CLOUDY    59  40  49 NW9       30.17F
6HR MIN TEMP:  47; 6HR MAX TEMP:  60;

MEDICINE LODGE   N/A     60  40  47 N14       30.18F
NEWTON         CLOUDY    55  39  54 N13G20    30.18F
PARSONS        CLOUDY    57  46  66 NW8       30.14F
6HR MIN TEMP:  50; 6HR MAX TEMP:  57;

WICHITA INTL   CLOUDY    59  42  53 N13       30.16F
6HR MIN TEMP:  48; 6HR MAX TEMP:  60;

WICHITA JABRA  CLOUDY    58  42  55 N12       30.16F
6HR MIN TEMP:  47; 6HR MAX TEMP:  59;

WICHITA MCCONL MOSUNNY   57  42  55 N12       30.16
WINFIELD       CLOUDY    56  43  61 N9        30.18F
6HR MIN TEMP:  47; 6HR MAX TEMP:  57;

$$

KSZ007>012-019>026-033>040-048>060-102>105-021900-
NORTHEAST KANSAS

CITY           SKY/WX    TMP DP  RH WIND       PRES   REMARKS
CONCORDIA      PTSUNNY   58  36  43 VRB5      30.15F
6HR MIN TEMP:  46; 6HR MAX TEMP:  60;

EMPORIA        CLOUDY    56  41  57 NW10      30.13F
6HR MIN TEMP:  47; 6HR MAX TEMP:  56;

LAWRENCE       CLOUDY    56  44  64 N7        30.12S
6HR MIN TEMP:  48; 6HR MAX TEMP:  57;

MANHATTAN      CLOUDY    59  38  45 N6        30.14F
6HR MIN TEMP:  49; 6HR MAX TEMP:  60;

OLATHE IND     CLOUDY    53  44  71 NW10      30.12F
6HR MIN TEMP:  48; 6HR MAX TEMP:  54;

OLATHE EXE     CLOUDY    53  42  66 N7        30.11F
6HR MIN TEMP:  47; 6HR MAX TEMP:  53;

SALINA         CLOUDY    60  41  49 NW8       30.17S
6HR MIN TEMP:  48; 6HR MAX TEMP:  61;

TOPEKA BILLARD CLOUDY    58  43  57 N9        30.12S
6HR MIN TEMP:  48; 6HR MAX TEMP:  58;

TOPEKA FORBES  CLOUDY    58  44  60 N10       30.11F
6HR MIN TEMP:  49; 6HR MAX TEMP:  61;

$$




USA.gov is the U.S. government's official web portal to all federal, state and local government web resources and services.